This is the latest recevied weather packets stored in our database for station/object YO2LDK-13. If no packets are shown the sender has not sent any weather packets the latest 10 day(s).
| Time | Temp. | Humidity | Pressure | Rain* | Wind** | Luminosity | Snow |
|---|---|---|---|---|---|---|---|
| 1777581321 | 6.67° C | 46% | 1014.9 hPa | 0 mm | - | 0 W/m² | - |
| 1777581023 | 6.67° C | 46% | 1014.9 hPa | 0 mm | - | 0 W/m² | - |
| 1777580719 | 6.67° C | 46% | 1015.2 hPa | 0 mm | - | 0 W/m² | - |
| 1777580420 | 6.67° C | 46% | 1014.9 hPa | 0 mm | - | 0 W/m² | - |
| 1777580120 | 6.67° C | 46% | 1014.9 hPa | 0 mm | - | 0 W/m² | - |
| 1777579820 | 6.67° C | 46% | 1014.9 hPa | 0 mm | - | 0 W/m² | - |
| 1777579520 | 6.67° C | 46% | 1014.9 hPa | 0 mm | - | 0 W/m² | - |
| 1777578920 | 7.22° C | 45% | 1014.9 hPa | 0 mm | - | 0 W/m² | - |
| 1777577721 | 7.78° C | 43% | 1014.9 hPa | 0 mm | - | 0 W/m² | - |
| 1777577419 | 7.78° C | 43% | 1014.6 hPa | 0 mm | - | 0 W/m² | - |
| 1777577119 | 8.33° C | 43% | 1014.9 hPa | 0 mm | - | 0 W/m² | - |
| 1777576519 | 8.33° C | 42% | 1014.6 hPa | 0 mm | - | 0 W/m² | - |
| 1777576220 | 8.89° C | 42% | 1014.9 hPa | 0 mm | - | 0 W/m² | - |
| 1777575920 | 8.89° C | 42% | 1014.6 hPa | 0 mm | - | 0 W/m² | - |
| 1777575321 | 8.89° C | 42% | 1014.6 hPa | 0 mm | - | 0 W/m² | - |
| 1777574120 | 9.44° C | 40% | 1014.2 hPa | 0 mm | - | 0 W/m² | - |
| 1777573820 | 10° C | 40% | 1014.2 hPa | 0 mm | - | 0 W/m² | - |
| 1777573219 | 10.56° C | 39% | 1014.2 hPa | 0 mm | - | 0 W/m² | - |
| 1777572620 | 10.56° C | 39% | 1013.9 hPa | 0 mm | - | 0 W/m² | - |
| 1777572319 | 11.11° C | 39% | 1013.9 hPa | 0 mm | - | 0 W/m² | - |
| 1777570520 | 12.22° C | 35% | 1013.2 hPa | 0 mm | - | 4 W/m² | - |
| 1777569920 | 12.78° C | 33% | 1013.2 hPa | 0 mm | - | 7 W/m² | - |
| 1777569320 | 13.33° C | 32% | 1013.2 hPa | 0 mm | - | 10 W/m² | - |
| 1777569020 | 13.89° C | 31% | 1013.2 hPa | 0 mm | - | 12 W/m² | - |
| 1777568420 | 13.89° C | 30% | 1013.2 hPa | 0 mm | - | 16 W/m² | - |
* Rain latest hour (hover to see other rain measurements)
** Current wind speed in m/s (hover to see current wind gust speed)